Location: Borovka
(49.7741°N, 14.5280°E)
Time: 14:11:53
(UTC+00:00)

Thor Agena Rocket - Pass Details

Date: 21 February 2026
Orbit: 755 x 801 km, 99.1° (Epoch: 7 March)

Event Time Altitude Azimuth Distance (km) Brightness Sun altitude
Rises 05:10:07 0° 20° (NNE) 3,321 7.0 -8.9°
Reaches altitude 10° 05:12:36 10° 28° (NNE) 2,388 6.3 -8.5°
Maximum altitude 05:17:36 42° 99° (E) 1,129 5.1 -7.7°
Drops below altitude 10° 05:22:34 10° 170° (S) 2,369 6.3 -6.9°
Sets 05:25:00 0° 177° (S) 3,291 6.9 -6.5°
